Theta_e
343 343 343 342 343 345 348 349 349 349 350 350 350 351 350 350 350 350 350 349 349 349 348 348 347 348 347 346 346 343 343 342 339 341 343 340 335 329 327 326 326 328 328 330 330 329 329 328 329 330 330 331 331 331 334 336 337 337 338 339 339 339 339 339 339 340 340 340 339 340 340 341 340 340 341 340 340 340 339 338 335 328 322 319 321
342 342 342 342 343 346 347 347 347 349 350 350 350 351 351 351 351 351 351 350 349 349 348 348 348 347 347 348 347 346 344 343 341 342 342 340 339 335 332 330 328 328 327 328 328 329 330 330 330 330 331 331 332 333 334 337 338 338 339 339 339 338 338 339 338 339 340 339 338 340 340 340 340 340 340 340 340 338 337 337 332 326 321 319 320
340 341 343 344 347 347 347 348 349 348 350 350 348 349 349 348 349 349 350 351 349 349 349 348 348 347 347 347 347 346 346 345 344 343 343 340 338 336 335 334 333 333 332 333 332 332 333 333 333 333 333 334 334 335 335 336 337 337 338 338 338 337 337 338 337 338 340 337 336 338 339 340 339 338 337 337 336 335 335 333 328 323 320 319 319
341 342 344 346 348 348 347 348 349 348 348 348 345 345 346 344 343 344 348 350 349 349 350 349 349 348 347 346 346 346 346 347 346 344 343 340 338 338 337 337 335 334 333 333 333 333 333 333 333 333 333 333 333 334 334 335 335 335 335 336 336 334 334 334 333 333 334 333 331 331 333 334 331 328 327 327 328 329 331 329 326 322 320 319 319
343 343 347 348 346 347 349 348 348 347 345 344 344 345 347 347 345 346 348 350 349 349 349 348 348 348 347 346 347 347 347 347 347 345 345 343 343 342 341 339 336 334 333 332 331 332 332 332 332 333 333 333 333 333 333 333 333 332 332 333 332 331 330 329 328 326 325 324 323 323 323 323 321 321 321 322 323 325 326 326 324 321 319 320 320
344 344 348 350 347 346 350 349 345 344 345 344 347 349 349 350 349 348 349 349 348 348 348 347 347 348 347 346 347 346 347 347 347 346 346 345 345 344 343 341 339 337 336 335 334 333 334 334 334 334 334 335 334 334 333 333 332 330 330 329 329 328 327 326 325 323 321 320 320 320 320 320 319 319 320 321 322 323 323 323 322 320 320 319 320
344 344 348 351 350 349 348 348 344 345 348 345 348 352 349 350 350 349 349 348 349 348 347 347 347 347 347 347 347 346 347 347 347 347 346 346 346 344 343 342 341 339 339 339 338 337 336 336 334 335 334 333 333 333 332 332 331 330 329 328 327 326 326 325 324 323 321 320 319 320 320 320 319 319 319 319 321 321 321 321 320 320 320 320 320
344 344 348 351 352 350 348 345 344 347 348 345 349 352 349 349 348 349 350 348 348 347 346 346 346 347 347 348 347 347 348 347 347 347 346 346 346 346 344 341 338 337 337 339 340 338 335 333 332 332 331 331 330 330 330 329 329 329 329 327 327 326 326 326 325 324 323 321 320 320 320 320 320 320 320 320 320 320 320 321 321 320 320 320 320
345 344 348 352 351 351 348 344 344 346 346 347 351 351 350 349 346 346 349 349 348 347 346 345 345 346 346 347 347 348 348 348 347 347 346 346 345 346 346 343 340 338 339 340 341 340 335 332 332 332 331 331 331 331 331 330 329 329 328 328 328 327 327 327 326 326 325 323 322 321 321 321 321 321 321 321 321 321 321 321 321 321 321 321 320
346 344 346 349 350 350 347 344 345 344 345 349 352 351 352 352 349 345 346 349 350 348 346 345 345 344 344 345 347 347 348 348 346 346 347 346 345 346 346 346 345 343 343 343 343 342 339 336 336 335 334 333 334 335 333 332 331 329 329 329 329 329 328 327 327 326 326 325 324 323 323 322 322 322 322 322 322 322 322 322 322 322 321 321 321
345 344 344 347 350 348 344 343 344 343 345 350 352 352 350 350 350 346 343 347 350 349 347 345 345 345 344 344 345 346 346 347 346 346 347 346 345 346 346 346 346 346 345 344 344 344 341 338 337 339 339 338 337 337 335 334 332 331 330 329 330 329 329 328 327 326 326 326 326 325 324 324 323 324 323 323 323 323 323 322 323 323 322 322 322
344 344 343 344 348 347 343 343 344 343 346 351 353 351 347 346 346 344 344 347 348 349 348 345 346 346 346 345 345 346 346 347 347 346 346 346 346 346 346 346 346 346 346 345 346 346 344 338 337 341 343 341 339 337 336 334 332 331 330 330 329 328 327 327 326 326 326 326 326 325 326 326 326 326 326 326 326 326 326 325 325 325 325 325 324
342 344 344 344 345 344 343 343 345 345 345 349 350 346 345 345 345 344 346 348 348 347 346 346 346 346 346 345 345 346 346 346 347 346 346 346 346 346 346 346 346 347 346 346 346 346 346 344 343 345 345 342 341 339 336 334 332 330 329 328 328 327 327 327 326 327 327 327 328 328 329 329 330 331 331 332 331 332 332 332 332 331 331 331 331
342 343 345 345 345 345 344 343 344 345 343 345 345 344 345 346 347 349 349 350 349 346 345 346 346 345 346 346 345 346 346 346 345 345 345 345 345 345 345 346 346 346 346 347 347 347 348 348 348 347 344 342 344 343 338 335 334 332 330 329 328 328 328 329 329 330 330 331 332 333 334 335 336 337 338 338 338 339 340 339 340 339 339 339 339
342 343 344 345 346 347 348 346 343 343 343 343 343 344 345 345 348 351 350 349 348 346 347 346 345 345 346 346 345 346 346 346 345 344 344 344 344 344 344 345 344 345 346 346 347 348 348 348 347 344 341 341 342 343 342 341 338 336 334 332 331 331 330 331 332 333 334 335 336 338 340 341 342 342 343 344 345 345 346 346 346 346 346 346 346
342 343 344 345 345 348 352 350 343 342 343 341 342 344 345 347 350 349 349 349 348 347 347 346 346 345 347 346 346 346 345 344 345 344 344 343 344 344 344 344 345 345 345 346 346 347 347 348 346 341 339 339 339 339 343 343 340 337 337 335 334 334 334 335 335 336 338 340 342 343 344 345 345 346 346 347 347 347 348 348 349 349 349 349 349
342 343 345 345 346 347 349 350 347 343 344 345 347 346 346 349 349 347 348 349 349 347 346 347 346 345 347 347 348 347 345 345 345 344 344 343 343 343 344 344 345 344 345 345 346 346 346 347 346 342 339 339 338 339 340 341 339 339 338 337 338 338 338 340 340 342 343 344 346 346 346 346 346 347 347 347 347 348 348 348 349 350 350 350 350
343 344 344 343 345 345 344 347 349 344 343 347 347 345 347 349 349 348 350 349 349 349 347 346 347 346 346 347 347 347 346 346 345 345 345 343 343 344 344 344 344 344 346 346 345 346 345 344 346 346 343 341 340 339 339 340 341 341 341 341 341 342 342 343 343 345 345 345 347 347 348 348 348 348 348 348 348 348 349 349 349 350 351 352 351
345 344 343 343 344 345 342 344 347 347 345 345 347 349 350 350 348 349 350 347 348 351 349 348 348 347 347 347 347 347 346 346 346 345 345 344 344 344 343 344 344 344 345 345 345 345 345 346 346 347 346 343 341 341 341 342 343 343 344 343 343 343 343 343 344 344 344 345 345 346 347 348 348 349 349 349 350 350 351 350 350 351 352 352 353
346 344 342 344 344 345 343 341 345 346 345 345 349 352 350 346 344 345 345 344 346 349 350 349 349 348 348 349 347 346 346 346 346 346 346 345 344 344 344 344 344 345 344 345 345 346 347 347 346 347 348 344 342 343 343 344 344 344 344 344 343 343 343 344 343 343 344 344 343 344 345 346 347 348 349 350 351 351 352 351 351 352 352 353 354
343 344 343 344 345 346 345 343 344 344 346 350 351 349 346 342 341 343 344 344 346 345 347 349 349 349 349 350 350 347 346 346 346 346 346 346 345 344 345 344 345 345 345 346 346 347 347 346 345 347 349 348 345 344 344 344 345 344 344 342 340 340 340 341 341 341 342 342 342 342 344 345 346 348 350 351 352 353 353 354 354 354 354 355 356
345 344 343 344 345 346 345 345 345 345 347 351 350 347 344 342 343 345 345 345 345 344 347 350 350 349 349 350 351 349 347 347 346 346 346 346 346 345 344 345 346 346 346 346 346 345 346 347 348 349 351 351 346 345 344 344 343 340 337 334 333 335 335 337 339 340 341 342 343 344 345 347 348 350 352 353 354 354 354 354 354 354 354 356 357
349 347 345 345 345 345 345 346 345 345 345 347 349 350 350 350 349 346 343 344 345 346 350 351 348 347 348 349 350 348 347 347 347 347 348 348 348 347 346 346 346 347 347 345 344 345 346 348 349 351 352 350 345 344 342 341 337 331 330 329 330 332 332 335 339 342 345 345 346 347 349 351 352 353 354 354 355 354 353 352 352 353 355 355 353
349 349 347 346 346 344 344 346 345 345 344 346 351 352 354 355 351 348 346 345 345 345 349 352 350 348 349 350 350 348 347 348 348 348 349 350 349 348 347 346 347 348 346 345 345 345 347 349 350 351 352 349 345 339 338 344 342 329 328 330 328 331 331 334 340 344 346 347 348 350 351 352 352 352 353 353 354 353 351 352 353 354 353 349 344
347 348 349 349 346 342 343 344 344 344 344 345 347 347 351 354 352 350 350 348 347 345 346 351 352 350 351 351 349 349 349 349 349 349 350 350 350 349 348 347 348 347 347 346 345 346 346 348 349 349 349 347 344 334 334 349 349 331 327 330 329 330 330 332 339 343 346 348 349 350 348 349 349 350 351 352 352 352 352 353 352 350 346 340 337
348 347 349 350 348 344 342 342 343 344 344 344 345 343 346 351 352 352 353 351 347 345 346 350 351 350 351 352 351 350 349 349 350 350 350 350 350 350 349 349 348 348 348 348 347 347 347 348 348 348 347 340 338 334 330 347 350 331 326 334 334 332 329 330 336 342 346 347 347 348 347 349 350 351 351 351 352 352 351 350 347 342 339 336 334
351 347 346 347 347 344 342 341 341 343 344 344 345 344 342 345 347 349 353 352 347 344 347 351 352 350 350 350 351 351 349 350 351 351 351 351 351 351 351 351 350 350 350 349 349 347 347 350 349 350 347 336 338 340 332 344 349 331 326 337 336 333 329 330 335 339 344 345 345 348 349 352 353 353 353 352 350 347 344 342 339 337 335 331 329
352 348 344 344 344 344 342 341 341 341 343 343 344 345 343 344 344 344 350 354 349 344 348 351 351 351 350 348 348 350 351 350 351 352 352 351 351 352 350 351 352 352 351 352 352 348 348 352 351 352 349 337 339 345 339 346 346 330 328 334 332 330 329 330 334 337 341 344 347 350 352 353 353 353 353 350 343 339 337 336 335 333 330 327 325
349 349 347 344 344 344 343 343 342 340 341 343 342 344 344 344 345 343 348 355 351 345 348 352 353 354 354 351 348 350 351 348 349 352 350 347 348 350 350 351 352 353 353 353 354 352 350 351 351 354 350 338 340 347 347 348 342 328 329 331 328 330 330 330 333 335 341 347 349 351 353 352 351 351 350 344 339 336 334 333 330 329 326 324 324
346 349 350 347 343 344 343 342 342 341 341 342 341 342 343 343 344 343 345 350 349 345 345 348 351 354 355 354 351 351 350 348 349 353 350 346 347 350 352 351 350 352 354 354 355 354 352 350 350 353 351 343 344 350 351 348 339 327 328 328 327 329 328 329 333 336 341 346 349 351 352 352 349 347 345 340 336 334 332 330 327 326 325 323 323
342 343 347 348 345 344 342 340 342 342 340 340 340 341 342 343 342 344 345 344 344 346 347 348 351 352 351 351 350 350 350 349 349 352 351 348 347 349 352 350 347 348 350 353 356 354 352 353 351 350 351 348 344 342 344 346 338 327 327 327 325 328 331 332 332 337 342 343 347 350 351 352 348 342 339 336 334 332 331 330 327 324 324 323 323
341 339 340 346 347 346 345 343 344 344 341 340 341 339 340 341 342 347 349 346 342 343 347 349 352 352 349 348 348 348 348 348 346 348 350 348 346 347 349 347 345 345 346 349 355 356 353 353 351 350 351 348 344 338 334 342 343 330 326 327 323 326 336 341 337 336 341 342 344 348 351 351 348 342 336 333 331 332 332 330 326 324 324 323 322
339 339 338 342 345 345 346 347 347 347 343 340 340 338 338 340 340 343 346 345 343 343 343 345 349 350 346 344 344 345 345 345 345 347 350 349 347 347 347 346 347 350 348 346 352 354 351 350 351 352 348 342 344 341 331 339 344 333 327 328 325 324 332 346 349 338 337 341 339 343 349 351 350 345 339 335 334 334 333 330 327 324 324 323 323
334 335 336 340 342 342 345 347 346 345 342 338 339 340 339 340 340 342 343 343 342 343 343 342 343 344 343 341 341 341 341 341 341 345 349 350 350 350 350 350 351 353 351 345 345 345 346 349 348 350 350 344 342 342 333 333 336 329 326 327 331 330 324 341 354 343 333 338 335 338 346 349 352 349 345 343 342 340 337 331 327 325 323 324 323
335 333 333 339 341 339 340 342 341 340 339 339 340 341 339 338 338 340 343 343 341 341 342 341 342 342 341 340 339 341 344 345 342 343 348 349 348 348 347 347 347 348 350 345 337 335 340 344 343 346 352 347 338 336 333 332 331 330 331 328 331 334 323 334 353 344 330 333 332 333 340 344 350 351 350 349 348 346 343 335 329 325 324 324 323
338 334 331 335 337 334 335 337 337 337 338 338 340 341 340 338 336 337 338 337 335 335 335 337 340 342 340 340 341 344 347 346 340 340 347 347 345 343 341 340 337 337 342 340 335 333 333 335 336 338 341 337 331 332 332 333 333 332 332 327 327 331 324 336 353 345 327 329 330 328 334 339 346 349 351 351 351 350 347 341 333 327 324 324 323
339 336 332 331 332 331 331 333 334 335 336 337 337 340 340 340 337 335 333 329 328 328 327 329 332 334 335 337 342 343 342 341 339 342 348 348 345 345 345 344 342 338 337 335 334 334 332 332 334 332 331 331 331 332 329 331 335 336 336 331 329 330 322 333 351 344 326 327 328 327 331 333 340 346 349 350 351 351 351 346 338 329 325 324 323
335 336 333 331 330 330 329 331 333 333 334 335 335 336 339 341 340 336 332 327 325 325 325 326 326 326 327 329 333 336 336 338 340 343 345 343 343 345 345 344 343 340 337 335 334 333 332 332 331 331 335 337 336 334 330 330 331 333 336 337 340 341 333 330 341 344 341 339 332 328 330 331 335 341 346 349 351 352 352 351 344 334 327 324 324
337 336 334 331 330 330 329 329 330 332 332 333 334 333 335 339 340 337 332 329 328 327 326 326 327 329 330 329 330 332 332 332 335 338 340 339 338 340 340 338 338 336 337 339 339 336 335 336 336 339 344 347 344 339 333 329 327 328 335 341 347 349 343 331 327 337 347 347 340 336 335 333 333 335 340 346 349 351 352 352 349 341 330 325 324
343 341 338 334 330 330 330 329 329 330 330 330 331 331 332 334 337 335 331 328 329 330 329 327 329 331 332 333 335 337 336 332 330 333 338 341 339 339 338 337 336 335 337 342 344 341 339 341 344 345 345 345 344 340 337 334 335 340 348 350 348 344 344 341 334 332 334 336 345 349 344 339 337 336 336 339 343 348 351 352 351 346 335 326 324
347 347 345 342 336 331 329 329 329 329 329 329 329 330 329 331 333 332 329 326 326 328 328 328 329 329 329 331 335 337 336 330 326 327 332 336 337 338 337 335 334 334 335 337 339 338 336 338 342 343 344 345 347 348 350 350 350 351 351 350 348 347 350 350 346 341 332 329 345 354 350 346 347 346 345 345 344 344 347 350 352 350 341 329 324
348 348 347 347 345 340 333 329 328 328 329 328 328 327 328 327 327 328 328 326 326 327 326 327 328 328 328 330 332 331 328 326 325 325 327 329 333 334 335 333 333 333 334 336 337 338 339 339 340 345 348 349 349 349 351 352 353 353 352 351 353 354 354 352 350 350 344 336 343 347 344 347 349 346 348 348 347 345 346 349 352 351 344 332 325
348 348 347 347 348 347 343 337 331 329 329 328 327 326 326 326 326 326 327 326 326 326 326 326 326 328 328 329 330 329 327 324 324 325 324 326 328 331 333 334 333 333 334 337 338 339 344 346 347 348 349 349 349 347 346 347 349 353 355 356 355 354 354 354 354 355 350 344 343 338 335 343 346 343 346 349 345 342 345 348 351 352 347 334 325
348 348 348 347 347 348 348 347 342 337 332 328 327 326 325 326 326 326 327 328 328 328 328 327 326 327 328 327 329 334 334 329 325 324 325 324 325 328 330 332 334 333 333 334 335 336 341 347 351 351 350 349 349 347 346 345 346 348 350 351 352 352 353 355 355 355 353 348 343 337 338 346 346 342 348 352 346 340 342 348 350 352 348 335 326
348 348 348 349 348 348 349 349 348 345 339 330 326 326 326 326 327 327 328 329 329 330 330 328 327 327 327 327 326 330 333 330 325 324 325 325 324 325 327 330 333 334 333 332 332 333 334 339 343 344 344 346 344 340 341 340 336 335 338 345 351 352 353 353 352 352 348 343 342 342 344 347 347 348 351 353 348 340 340 347 351 351 348 337 325
349 349 349 349 349 350 350 349 350 349 345 336 329 327 326 326 326 327 328 328 328 329 329 327 326 326 326 326 325 325 326 326 324 324 324 325 325 326 327 329 331 334 335 334 334 334 332 333 334 334 335 338 336 333 333 332 330 330 332 339 345 348 350 349 344 338 333 330 335 342 346 346 350 353 353 352 350 345 342 346 351 351 348 338 326
351 351 350 350 350 350 350 351 351 350 349 345 338 333 330 328 327 326 326 326 326 326 326 326 325 325 324 325 325 325 324 324 324 325 325 325 327 328 329 330 331 332 334 334 334 334 334 334 333 333 332 333 333 332 332 333 334 334 334 335 337 337 339 338 334 333 335 336 339 343 348 350 351 353 352 351 351 348 342 344 350 352 350 341 328
353 353 352 351 351 351 351 351 351 351 351 349 347 343 339 336 336 335 333 332 330 329 328 327 327 327 327 327 326 325 325 325 325 325 326 328 329 331 331 331 333 334 336 337 336 334 335 336 335 336 335 334 335 335 334 336 338 335 334 337 338 338 339 340 342 344 346 348 348 348 351 352 350 350 352 351 350 349 345 343 347 351 351 343 330
354 354 354 353 353 353 352 352 352 352 352 352 351 350 348 347 346 345 344 343 341 339 337 335 334 333 331 330 329 329 328 327 327 327 328 330 331 332 333 333 334 336 340 343 343 339 336 337 337 338 338 337 337 336 334 334 335 334 335 337 337 341 349 352 352 351 350 348 349 350 353 353 350 350 352 351 349 350 348 345 346 350 352 346 334
355 355 355 355 354 354 353 353 353 352 352 353 352 351 351 351 351 350 350 349 349 348 346 344 342 341 338 334 332 332 331 330 330 331 330 332 333 333 333 334 335 336 339 342 346 346 345 344 343 342 340 338 338 338 336 336 334 335 336 334 334 341 350 353 352 352 351 348 348 350 351 352 350 350 351 351 349 350 349 348 347 349 352 349 338
356 356 355 354 355 355 355 354 354 353 353 353 353 352 352 352 352 352 352 352 352 352 351 350 349 347 345 341 336 334 333 333 333 333 333 333 334 335 335 336 336 338 338 342 346 349 351 352 350 346 342 341 340 339 339 338 336 336 336 335 334 338 346 350 349 350 351 349 349 349 348 349 350 351 350 351 351 350 349 348 348 349 351 351 342
Wind_Speed
11 11 12 12 12 12 11 10 10 10 9 9 9 9 8 9 9 9 9 9 8 8 8 7 7 7 7 7 7 8 9 8 9 9 7 8 9 10 10 9 8 7 6 5 4 4 4 4 4 4 3 3 3 4 4 4 5 5 5 5 6 6 6 6 6 6 6 7 7 7 8 8 9 9 9 9 9 9 9 9 9 7 4 3 2
11 11 11 11 11 11 10 9 10 9 8 8 9 9 8 8 8 8 8 8 8 7 7 6 6 6 6 7 6 7 7 7 8 8 7 8 9 9 10 10 9 8 7 7 6 5 5 5 5 4 4 4 4 4 4 4 4 4 5 5 5 5 5 5 5 5 6 7 7 7 8 8 9 9 9 10 10 10 10 9 9 7 5 4 3
10 10 10 9 9 8 9 8 8 8 8 7 8 9 8 9 10 10 9 8 7 7 6 6 6 6 6 7 7 6 6 7 7 7 6 7 8 8 9 9 8 8 7 6 6 5 5 5 4 4 4 4 4 4 4 4 4 4 4 4 4 4 4 4 4 4 6 7 7 7 7 8 9 9 9 10 10 10 10 10 9 8 6 5 4
10 9 8 8 7 7 7 7 7 6 7 7 8 10 10 10 12 12 10 8 7 6 6 6 5 6 6 6 6 6 6 7 6 6 5 5 7 7 7 8 7 7 6 6 5 5 4 4 4 4 4 4 3 4 4 4 4 4 3 4 4 4 5 4 4 4 4 6 7 7 7 7 9 9 10 10 10 10 10 10 9 8 7 6 5
9 8 7 6 6 7 6 5 6 6 6 8 8 8 8 7 8 9 8 7 6 6 6 6 5 5 6 6 6 5 5 6 6 6 6 5 5 6 7 7 7 7 7 6 5 5 4 4 4 3 3 3 3 3 4 4 4 4 4 4 5 6 6 7 7 6 6 5 5 5 5 6 7 8 9 9 8 9 9 9 9 8 7 7 7
7 7 6 5 4 5 5 4 5 6 6 7 6 5 5 5 5 5 5 6 6 5 6 5 5 5 5 5 5 5 5 5 5 5 5 5 4 5 6 6 6 7 6 6 6 6 5 5 4 3 3 3 3 4 4 5 5 5 6 7 7 8 8 8 8 8 8 8 7 7 7 7 7 7 8 7 7 7 7 8 8 8 8 7 8
7 6 6 5 4 4 4 4 5 6 5 5 5 4 4 4 4 4 4 5 5 4 5 5 5 5 5 5 5 5 5 4 5 5 5 5 5 5 5 5 6 6 5 5 5 6 6 5 4 4 4 4 4 5 5 6 6 7 8 8 9 9 8 9 8 9 8 8 8 8 8 8 8 8 8 8 8 8 8 8 8 8 8 8 8
6 6 6 5 4 3 3 4 5 5 4 5 5 3 3 3 4 4 4 4 4 4 5 5 5 5 4 4 4 4 4 3 4 4 3 4 5 5 5 6 6 5 5 5 5 5 6 6 5 5 4 5 5 6 6 7 7 8 8 8 8 8 8 8 8 8 9 9 9 9 9 9 8 8 8 8 8 8 8 8 8 9 9 9 9
5 6 6 4 4 3 3 3 5 5 4 5 4 2 3 2 3 4 4 4 4 4 5 5 4 4 4 4 3 3 3 2 3 3 2 4 4 4 4 5 6 5 5 5 5 5 6 6 5 5 5 6 6 7 7 7 8 8 8 8 8 8 8 8 8 9 9 9 9 9 9 9 9 9 9 9 9 9 9 9 9 9 10 10 10
5 5 5 4 4 3 3 3 4 4 5 5 3 3 3 3 2 3 5 4 3 3 4 4 4 4 3 3 2 2 2 1 2 2 2 3 3 3 3 4 4 4 4 4 4 4 5 5 5 5 6 7 7 7 8 8 8 8 8 8 8 8 8 8 8 9 9 9 9 9 9 9 9 9 9 9 10 10 10 10 10 10 11 11 11
5 5 5 5 3 3 3 4 4 4 5 4 3 3 3 4 3 3 4 4 3 3 3 3 3 3 3 3 2 2 2 1 1 2 2 2 2 3 3 3 3 3 4 4 4 4 5 5 5 5 6 7 8 8 8 8 7 8 8 8 8 8 9 9 9 8 9 9 9 9 9 9 9 9 9 10 10 10 10 11 11 11 12 12 13
5 5 5 5 4 3 4 4 4 4 5 5 4 3 4 4 4 3 4 3 3 2 2 2 2 2 3 3 2 2 1 1 1 1 1 1 1 3 3 2 3 3 3 4 3 2 4 5 5 5 5 7 8 8 8 8 8 8 8 8 8 8 8 8 8 8 8 8 8 8 8 8 8 9 9 9 10 10 10 11 11 11 12 13 13
5 5 5 5 5 4 4 4 3 3 5 5 5 5 4 4 4 3 3 3 2 2 1 1 1 2 3 3 3 2 1 1 2 2 1 1 1 2 3 2 2 3 3 3 3 2 3 5 6 5 5 6 6 7 8 7 7 8 8 8 8 8 8 7 7 7 7 7 7 7 7 8 8 9 9 10 10 10 11 11 11 12 12 13 14
5 5 5 5 5 4 4 4 4 3 4 5 5 4 4 4 4 3 3 3 2 2 2 1 2 2 2 2 3 3 3 2 2 2 2 2 1 2 2 3 3 2 2 2 3 4 3 3 4 4 4 5 5 6 7 7 7 7 7 7 7 7 7 6 6 6 6 6 6 7 7 8 8 9 9 10 10 10 11 11 11 12 12 13 14
5 5 5 5 5 4 3 3 4 4 4 4 4 3 3 4 5 4 3 3 2 3 2 2 2 2 2 3 3 4 5 4 3 3 2 2 2 2 2 2 2 2 2 2 3 3 3 3 3 4 4 4 4 5 6 6 6 6 6 6 6 5 5 5 5 5 6 6 7 7 8 8 9 9 9 10 10 10 11 11 12 12 13 14 14
5 5 5 5 5 5 3 3 3 4 4 3 3 3 3 4 4 4 4 3 2 2 2 2 2 2 2 2 3 4 5 5 4 3 3 3 3 2 2 2 2 2 2 2 2 3 3 3 4 4 4 4 5 5 5 5 5 5 5 5 4 5 5 5 6 6 7 7 7 8 8 9 10 10 11 11 12 12 12 13 14 15 15 16 17
6 6 6 6 5 4 4 4 3 4 4 3 3 3 3 3 4 4 4 3 2 2 2 2 2 3 3 2 3 4 5 4 3 3 2 3 3 2 2 2 2 2 2 2 2 2 2 3 4 4 5 5 5 6 5 5 5 4 5 5 5 6 7 7 8 8 8 9 10 10 11 12 12 13 14 14 15 15 15 16 16 17 18 18 18
7 7 7 6 5 4 5 4 3 4 4 4 3 3 3 3 4 4 3 3 2 1 1 1 2 3 3 3 3 4 4 4 3 3 3 3 2 3 3 3 2 2 2 2 2 2 1 2 3 3 4 6 6 6 5 5 5 5 6 7 8 9 10 10 10 11 11 12 13 14 15 15 16 17 17 18 18 18 19 19 18 19 19 19 19
7 8 7 6 5 5 5 5 4 4 4 4 3 3 3 4 5 5 5 4 3 1 1 1 1 2 2 2 2 2 3 3 3 4 4 3 2 2 3 3 3 3 3 3 2 2 2 2 2 2 3 5 6 6 6 6 7 8 9 11 12 13 13 13 14 14 15 15 16 17 17 18 18 18 18 19 19 19 20 20 19 19 19 20 20
9 8 8 7 6 5 5 5 5 5 4 4 3 3 4 4 5 5 5 5 4 2 1 0 1 1 1 1 1 2 2 2 3 3 3 3 3 2 3 3 3 3 3 3 2 2 2 2 2 2 3 4 5 6 6 7 8 10 11 13 14 15 16 16 17 17 18 18 19 19 18 18 18 18 18 18 18 19 19 19 19 19 20 21 21
9 9 8 8 7 6 5 5 6 5 4 3 3 4 4 4 4 4 5 4 4 3 2 1 0 1 1 0 0 1 2 1 2 3 2 2 3 3 3 2 2 3 3 3 2 2 2 2 2 2 2 4 5 5 6 7 8 9 11 13 14 15 15 16 17 17 18 18 18 18 17 17 17 17 17 17 18 18 19 19 19 20 21 21 21
9 8 8 8 7 7 6 6 6 5 5 5 4 3 3 3 4 4 4 4 4 3 2 2 2 2 2 2 1 1 1 1 1 2 2 1 1 1 2 2 2 2 3 3 2 1 1 1 2 2 2 4 5 6 7 8 9 10 11 12 13 13 13 14 14 14 15 15 15 15 15 15 15 16 16 17 18 18 19 20 20 20 20 21 21
8 8 8 8 7 7 7 6 6 6 6 5 4 3 2 2 3 4 4 4 4 3 2 3 3 3 3 3 2 2 2 1 1 1 1 2 1 1 2 3 2 2 3 3 1 0 0 2 1 1 3 5 6 7 8 9 10 11 12 13 14 14 15 14 13 12 12 12 13 14 15 15 15 15 16 17 18 19 20 20 20 20 20 20 20
9 9 8 8 8 7 7 7 7 6 6 5 5 5 4 4 4 4 3 4 3 3 3 3 3 3 3 3 3 2 2 1 1 1 1 1 2 2 2 2 1 2 3 2 1 1 1 1 0 1 3 6 7 8 9 9 11 13 14 15 16 17 17 16 15 13 12 13 14 15 15 15 16 16 16 17 18 19 20 20 20 19 20 19 19
11 10 9 8 9 8 8 7 7 7 7 6 6 6 6 5 5 4 3 3 3 3 3 3 4 4 4 4 3 3 2 2 2 1 0 1 2 2 2 2 1 2 2 2 1 1 0 1 2 2 4 6 8 9 9 7 10 15 16 16 18 19 19 18 16 15 14 14 15 16 17 17 17 17 17 17 18 19 19 18 18 18 18 19 20
12 11 9 9 9 8 8 8 7 7 7 7 6 6 6 6 5 4 4 4 4 3 3 3 4 4 4 4 4 3 3 2 2 1 1 1 1 2 3 3 2 1 2 2 1 1 0 0 2 4 5 6 7 9 10 7 9 15 17 16 18 19 20 19 18 17 16 16 17 17 18 18 17 16 16 16 17 17 17 17 17 17 18 20 21
12 12 11 10 10 9 9 9 8 8 7 7 7 6 6 6 6 6 6 6 5 4 3 3 4 4 4 4 4 4 4 3 2 2 1 0 1 1 3 3 3 2 1 1 1 1 1 0 1 3 6 7 7 9 11 8 9 16 17 16 17 19 21 21 19 18 18 18 18 18 17 17 17 16 15 16 16 16 16 17 18 19 20 21 23
13 13 13 11 10 10 9 10 10 9 9 8 8 7 6 6 6 7 7 6 6 5 4 4 4 4 4 4 4 4 4 4 3 3 3 2 1 2 2 3 3 3 2 1 1 1 1 1 3 5 8 9 8 9 10 9 11 15 16 16 18 20 22 21 19 19 18 18 18 17 17 18 18 17 16 16 16 17 18 19 20 21 22 23 23
14 13 13 13 11 10 10 10 11 11 10 9 9 8 7 7 7 7 7 8 8 7 6 5 5 5 5 4 4 4 5 5 4 4 5 3 2 2 3 3 3 4 3 3 3 2 2 3 4 7 11 11 8 9 10 9 12 16 16 17 18 20 22 21 19 19 18 17 18 18 18 19 20 19 18 17 17 18 20 21 22 23 23 23 22
16 14 14 15 13 11 11 11 11 11 11 10 10 9 8 8 7 8 8 9 9 8 7 6 6 6 6 5 5 5 5 5 4 4 6 4 3 3 4 4 4 4 4 5 5 4 4 5 4 6 11 11 8 8 9 10 13 15 16 17 18 19 21 21 19 18 17 18 19 19 19 20 20 19 19 18 18 20 21 22 23 24 24 23 22
18 19 18 16 14 13 12 12 12 12 12 11 11 10 10 9 8 8 8 9 9 8 7 7 6 6 7 6 6 6 5 5 5 5 6 6 4 4 5 5 5 5 5 5 6 5 5 6 7 7 9 10 9 8 8 10 13 15 15 17 18 19 20 22 21 18 17 19 20 20 20 20 20 19 19 19 19 20 22 23 24 24 23 22 22
19 20 20 18 16 14 13 12 12 13 13 12 12 11 11 10 9 9 9 9 9 8 8 8 7 8 8 7 7 6 6 6 6 5 5 6 5 5 6 6 6 6 7 6 7 8 7 7 8 7 7 9 9 10 9 9 12 15 15 16 18 18 17 19 21 18 18 20 21 20 20 20 20 19 18 19 19 20 22 24 25 24 23 22 21
19 20 20 20 19 17 14 13 13 13 14 14 13 13 12 12 11 10 10 10 9 9 9 9 9 10 9 8 8 8 7 7 7 6 5 6 6 5 6 7 6 7 8 8 8 10 10 8 7 8 8 8 8 10 10 8 10 14 15 15 17 18 15 12 16 19 19 20 22 21 20 20 20 19 18 18 19 20 21 23 25 24 23 22 21
20 20 21 20 19 18 17 16 16 15 15 14 14 14 14 13 12 11 11 11 10 10 10 10 10 10 10 9 9 9 9 9 9 8 7 7 7 6 7 7 7 8 9 10 10 11 11 10 9 8 9 9 9 10 11 10 11 13 14 14 14 17 17 11 10 17 20 20 22 21 20 20 20 19 18 18 19 20 21 22 23 24 23 22 22
21 21 22 21 20 20 19 18 19 18 17 16 15 16 16 15 14 13 13 12 11 11 11 10 10 10 10 10 10 9 9 10 10 9 8 8 8 9 9 9 9 9 10 12 12 12 12 12 11 9 8 10 11 11 12 12 12 13 13 14 13 14 18 13 9 16 21 22 21 20 20 20 20 18 18 18 19 20 21 22 23 23 23 22 22
21 22 22 22 22 22 21 20 21 20 20 19 18 17 18 17 16 15 14 14 12 12 11 11 11 11 11 11 11 10 10 11 11 10 10 10 10 11 11 11 11 11 11 13 13 13 14 14 14 12 11 12 12 12 12 12 13 13 14 15 14 13 15 12 9 16 21 21 20 20 20 19 19 19 18 18 20 21 21 22 23 23 23 23 23
21 22 23 23 23 23 22 22 22 22 22 21 20 19 19 19 18 16 15 14 14 13 12 12 12 12 12 12 12 12 12 13 13 11 11 11 12 12 11 12 12 12 13 14 14 14 15 15 16 15 14 14 13 13 13 13 13 14 14 16 16 15 15 11 8 16 22 20 19 20 19 18 18 19 19 19 20 21 21 22 23 24 24 23 23
22 23 23 24 24 24 23 23 23 23 23 23 22 22 20 20 19 18 17 16 15 14 13 13 12 12 12 13 13 13 14 14 14 13 13 13 13 13 13 14 14 14 15 15 15 16 16 16 17 17 16 15 15 15 15 15 13 13 14 15 14 15 16 13 10 14 19 21 22 21 19 19 19 18 19 21 21 21 21 22 23 24 24 23 23
22 23 24 24 24 24 24 23 24 24 24 24 24 23 23 22 22 21 20 19 18 17 16 15 14 13 13 13 13 13 14 15 15 15 15 15 15 15 16 16 16 16 16 16 16 16 17 17 16 16 15 14 14 15 16 17 17 15 14 13 12 13 15 16 15 12 12 17 22 22 21 22 21 19 19 20 21 21 22 22 23 24 24 24 24
21 22 23 24 25 25 25 25 25 25 25 25 25 25 25 24 25 24 23 21 20 19 19 18 17 16 16 15 15 15 15 16 16 16 16 16 17 17 18 18 18 18 17 16 17 17 17 16 16 15 15 15 16 16 16 16 16 14 12 11 12 14 15 16 17 15 14 14 15 17 21 22 21 20 20 20 20 22 22 22 23 24 25 24 24
23 22 23 23 25 26 27 27 27 27 27 27 27 27 27 26 26 26 25 24 23 22 22 21 20 20 19 19 18 17 18 19 18 17 17 18 19 19 20 20 21 20 20 19 20 20 20 19 17 16 16 16 15 14 12 12 12 12 12 13 14 14 13 14 15 16 17 15 11 12 17 18 17 18 18 17 19 23 24 25 25 24 25 25 24
26 25 24 24 25 26 28 29 29 29 30 30 30 29 29 28 28 27 27 27 26 25 25 25 24 24 23 22 21 22 22 22 21 20 20 20 21 22 22 22 23 22 22 22 22 22 21 21 20 17 15 15 13 12 11 11 12 12 12 13 13 12 13 14 14 14 16 17 13 13 16 15 15 16 15 13 15 20 24 25 24 24 24 24 24
27 26 26 26 26 26 27 29 31 32 32 33 33 32 31 30 29 29 29 29 29 29 29 29 28 27 27 26 25 25 25 25 24 23 22 22 22 24 24 24 25 25 24 24 23 23 22 21 20 18 16 16 15 14 13 12 11 11 11 12 13 13 13 13 13 13 16 17 16 17 19 17 17 18 16 13 13 17 21 23 23 23 23 23 23
28 27 27 27 27 27 27 28 30 32 33 35 35 34 33 32 32 31 31 31 31 31 31 31 31 30 30 29 27 26 25 26 27 25 24 24 23 24 26 26 27 27 27 27 27 26 25 22 20 19 18 18 17 16 15 13 13 13 14 15 15 15 14 13 13 13 15 17 18 20 20 18 19 20 14 11 14 18 20 21 22 22 22 22 22
27 28 27 27 27 27 28 29 30 31 33 36 37 36 35 34 34 33 34 34 33 33 33 34 33 33 32 31 30 28 27 28 29 28 27 26 25 26 26 28 29 30 30 30 30 30 29 27 25 25 23 21 21 21 19 18 19 19 19 17 15 15 16 16 16 17 18 20 21 21 19 18 18 17 12 12 19 21 20 20 21 22 21 21 21
27 28 27 27 27 27 28 29 30 31 33 36 37 36 35 35 34 34 35 35 36 36 36 36 35 35 34 33 33 32 31 31 31 30 29 28 28 28 28 29 30 31 31 31 31 31 31 31 31 31 29 27 27 27 25 24 25 23 21 20 18 17 18 19 22 24 25 25 23 21 20 16 14 13 12 15 21 23 21 19 20 21 20 20 21
25 26 26 26 27 27 27 28 29 31 32 34 36 36 35 34 34 35 36 37 37 38 38 38 38 37 36 35 35 34 33 33 32 32 31 30 30 30 30 30 31 32 32 33 33 32 32 32 32 32 31 30 29 28 27 26 25 24 23 22 22 22 23 24 26 26 24 23 20 19 18 14 11 12 12 14 19 22 22 19 17 19 20 20 20
24 24 25 26 26 27 27 28 29 31 32 32 33 34 34 34 33 34 36 37 38 39 39 40 40 39 38 37 37 36 35 35 34 34 33 32 31 31 31 31 32 32 32 32 33 33 33 32 32 32 30 29 29 29 27 25 24 25 25 24 23 24 24 23 24 21 17 15 16 18 17 14 12 12 12 13 17 20 21 20 17 17 19 20 19
24 24 24 25 25 26 26 27 28 30 32 32 32 32 32 32 31 32 33 35 36 38 39 40 40 40 40 40 39 38 38 37 36 35 34 33 33 33 32 32 32 32 31 30 30 33 34 33 31 31 31 30 29 29 29 28 27 27 26 26 26 23 20 19 20 18 14 13 13 15 16 16 14 12 11 13 16 16 17 19 18 17 19 20 19
24 23 23 23 23 24 26 27 28 29 30 31 32 32 31 30 30 30 31 32 34 36 37 38 39 40 41 41 41 41 40 40 38 37 36 35 34 34 33 33 33 34 33 30 28 28 30 31 30 30 30 30 30 30 30 29 28 27 27 29 28 23 20 19 19 18 17 16 14 14 16 17 15 13 12 13 15 15 14 18 20 19 19 20 18
21 22 23 23 23 24 25 26 27 29 30 31 31 32 32 31 30 31 31 32 33 35 36 37 38 39 41 41 42 42 42 41 39 38 37 36 36 35 34 33 34 35 34 31 28 26 24 25 28 29 29 28 28 29 29 29 29 29 29 30 29 25 23 21 20 19 18 16 15 15 18 16 12 13 14 13 11 12 15 20 22 20 19 20 19
Wind_Direction
110 111 108 106 103 101 98 100 102 97 96 100 99 94 91 89 85 82 82 81 79 81 81 78 83 87 89 85 83 86 90 94 93 93 93 88 81 78 84 90 93 94 92 88 82 76 69 67 67 63 57 49 37 27 16 6 2 358 358 2 4 7 5 5 3 358 357 355 351 349 346 342 339 338 336 336 335 333 332 333 340 344 338 317 298
114 113 111 105 102 101 99 98 97 95 94 97 97 93 91 91 86 84 83 84 84 83 83 86 88 89 90 91 92 88 90 91 87 86 84 86 85 82 84 87 91 92 92 92 88 81 76 73 66 58 52 44 29 17 8 356 352 352 354 357 0 3 1 3 2 355 352 348 341 337 336 333 328 326 325 326 325 323 325 329 333 336 328 307 293
115 112 110 104 100 100 100 96 91 94 95 95 100 101 100 99 98 95 87 82 80 81 83 87 87 89 88 91 96 95 95 91 83 84 83 84 87 84 81 81 84 86 86 84 80 75 69 62 55 47 37 30 18 3 355 350 347 345 343 344 350 352 352 359 356 349 342 332 324 321 324 324 318 316 318 319 320 322 325 328 330 331 322 306 297
115 113 111 108 108 101 98 100 96 96 100 105 111 110 106 103 103 98 87 79 76 77 78 81 87 91 90 90 94 95 97 96 93 97 93 86 89 90 86 82 78 76 78 75 71 68 61 55 45 36 26 18 9 357 352 350 345 339 339 341 348 355 360 5 4 357 337 321 316 313 315 318 317 317 321 323 324 326 326 327 329 328 321 311 305
116 116 107 102 113 107 99 101 106 110 113 117 114 110 105 98 97 89 79 78 79 77 73 78 85 89 94 91 93 95 93 93 95 98 95 87 88 92 89 87 85 77 75 73 70 65 57 52 45 37 32 21 10 7 359 356 355 356 7 9 11 15 17 18 13 9 0 350 346 339 333 330 330 332 332 332 330 328 326 326 328 328 322 315 308
118 117 108 97 97 101 100 102 121 122 120 122 111 105 108 98 94 86 80 83 80 76 74 78 84 90 98 93 92 94 90 91 94 94 97 98 93 91 88 85 85 80 75 71 67 63 58 52 45 38 30 26 18 14 11 12 19 24 26 26 25 25 24 23 17 12 10 9 11 13 6 358 355 353 349 346 342 337 333 332 330 328 324 317 311
116 115 108 100 90 92 103 115 133 124 124 132 116 107 111 103 100 93 88 88 79 73 74 80 90 95 98 96 95 91 88 90 89 87 88 92 86 86 89 83 78 74 72 72 66 57 49 43 38 31 23 21 18 16 19 23 29 31 30 29 28 28 26 25 22 17 14 12 14 15 12 7 5 2 357 352 349 345 340 335 331 327 323 319 314
115 114 104 97 96 97 108 126 132 123 127 130 114 108 104 104 112 105 103 98 81 71 72 81 93 96 94 93 90 85 89 89 86 88 93 95 86 77 75 77 78 73 66 61 57 49 40 37 35 32 25 22 23 21 23 27 30 32 31 31 30 28 27 25 22 19 16 14 13 12 9 6 4 1 357 352 348 345 340 335 331 327 324 320 315
114 113 110 106 104 103 110 124 121 119 122 116 109 115 101 99 123 123 118 102 83 74 74 80 89 88 85 87 81 75 86 99 109 115 98 82 81 77 68 65 62 59 60 50 39 37 37 38 35 33 30 29 28 24 24 25 27 28 27 28 27 26 24 21 19 15 12 10 7 5 2 1 358 355 352 348 346 343 339 335 332 329 325 322 318
120 116 118 116 108 112 119 120 121 118 110 105 110 117 110 108 117 132 128 111 96 84 75 77 81 79 75 73 68 70 81 102 125 120 92 64 66 75 68 59 52 44 52 58 44 29 31 33 28 30 31 28 27 22 22 21 19 21 21 20 20 19 18 16 14 9 5 3 0 358 355 352 350 347 344 341 339 336 334 332 330 328 325 322 320
129 125 124 118 106 115 122 118 125 125 112 106 110 114 126 129 126 136 132 123 113 95 77 73 74 70 66 63 47 50 84 104 122 108 97 95 82 73 57 49 55 38 31 49 50 22 20 26 25 26 21 18 20 19 19 21 20 19 16 16 15 15 16 13 11 6 1 357 354 352 350 347 343 340 338 335 333 331 330 328 326 325 323 321 320
131 128 130 126 122 127 129 123 120 128 126 120 124 133 140 138 140 144 131 123 114 101 83 70 66 54 49 48 36 24 42 77 118 132 104 98 83 73 70 54 55 48 38 45 48 20 11 24 31 24 8 8 15 18 19 23 24 22 18 17 17 18 19 16 12 7 1 356 353 350 347 344 340 337 334 332 331 330 328 326 324 323 322 321 321
137 132 133 132 132 133 137 136 124 129 134 134 142 144 144 140 138 134 121 120 121 118 116 83 42 39 36 32 43 50 34 38 95 133 130 105 77 67 74 68 54 49 49 38 32 38 16 15 21 11 0 7 14 15 19 26 26 24 22 20 21 21 20 17 14 7 0 355 351 347 342 339 336 332 330 328 328 327 325 324 322 320 319 318 319
150 143 143 141 140 138 144 147 137 135 132 133 140 140 147 144 129 119 117 118 121 126 126 85 38 33 37 40 60 79 77 62 93 137 136 113 98 77 66 66 67 53 43 13 3 20 16 357 355 349 354 11 12 5 12 23 22 21 21 20 19 18 15 11 5 358 351 346 341 336 331 329 326 325 324 323 323 321 320 320 318 316 314 313 314
166 156 153 154 152 138 137 151 148 144 134 135 142 144 158 146 128 128 132 122 115 118 101 76 65 31 34 60 73 82 76 67 85 124 126 113 107 101 76 57 65 43 17 3 347 351 349 331 330 337 348 3 5 358 3 7 7 11 15 17 14 6 360 349 341 335 329 326 324 322 322 322 321 320 319 317 316 315 315 314 312 311 310 309 309
182 172 166 171 163 142 144 162 153 143 139 140 138 146 160 149 147 146 135 122 117 124 102 71 60 39 34 51 65 74 68 65 86 109 120 117 111 102 76 51 46 11 353 357 333 323 326 321 323 334 344 353 0 0 360 353 354 3 6 6 359 344 335 327 323 320 318 318 317 318 317 316 314 312 310 308 307 307 307 307 307 307 306 306 306
192 186 179 182 172 156 159 159 151 143 141 141 140 158 165 161 173 163 144 140 128 131 124 78 41 46 56 50 54 60 50 53 80 94 109 116 111 95 61 45 32 10 359 347 333 330 328 321 326 341 353 359 1 0 360 354 351 354 350 345 338 333 328 323 321 317 316 315 313 313 311 309 307 305 305 305 305 305 306 307 307 308 308 309 310
200 197 189 190 185 175 165 155 159 154 147 156 155 154 159 168 178 165 164 182 156 112 110 85 33 48 64 57 49 43 31 31 61 88 107 105 102 104 74 49 58 54 38 16 1 359 350 344 351 355 358 3 3 360 358 354 348 343 338 335 333 331 329 326 324 321 318 317 314 313 309 307 306 306 307 307 308 308 309 311 311 312 315 316 317
201 206 196 197 194 184 174 161 164 165 163 170 154 140 163 181 183 175 187 202 188 137 99 82 35 55 73 58 34 31 35 39 61 94 110 94 92 108 78 67 85 75 51 42 39 33 30 38 36 12 357 3 7 3 358 349 340 336 331 330 329 328 326 325 323 321 320 319 318 316 311 308 307 307 309 310 311 312 314 317 318 320 323 324 324
198 206 201 201 197 187 182 169 165 168 168 172 163 170 189 188 185 188 197 205 200 188 173 167 47 91 107 67 27 29 47 53 72 90 98 101 112 100 74 80 87 68 52 43 33 36 39 41 49 36 3 1 3 359 352 342 335 331 326 325 324 321 319 317 316 315 314 313 314 314 312 311 311 313 315 317 319 320 322 324 326 326 327 327 327
200 203 202 204 199 186 183 175 171 166 159 170 185 186 191 184 178 186 194 201 209 208 201 226 240 195 227 325 28 47 58 64 78 75 72 96 103 93 89 90 77 55 35 19 21 40 32 17 37 45 13 353 351 349 345 339 335 330 326 326 324 320 317 314 312 311 310 310 311 313 316 318 320 323 325 328 330 332 331 330 329 329 328 329 328
203 206 204 205 200 189 184 179 176 172 167 179 190 187 188 185 181 183 186 192 205 207 212 241 233 208 230 243 224 173 130 120 101 84 77 73 46 70 90 67 56 58 18 1 17 19 15 53 53 34 4 345 340 340 340 333 331 333 334 336 335 333 333 329 325 322 320 321 323 324 327 329 331 333 334 336 336 337 336 333 332 330 329 329 328
204 209 210 209 206 195 188 186 184 182 179 178 179 176 179 187 191 189 184 189 198 197 202 234 231 212 226 239 229 209 179 140 128 120 83 69 27 28 56 35 23 44 16 356 13 3 93 107 83 355 343 333 326 330 337 335 336 346 350 349 349 348 349 349 345 340 338 338 340 340 340 338 338 337 335 335 335 334 334 333 332 331 331 331 333
207 210 213 215 213 203 196 195 191 189 184 179 178 177 176 187 201 198 190 195 199 192 185 210 230 223 229 236 230 227 213 184 176 168 112 82 61 32 32 38 29 39 29 12 49 129 134 130 155 339 336 326 320 328 348 348 338 350 356 352 352 353 353 354 352 349 349 348 349 349 345 341 337 335 334 332 331 331 331 332 333 333 335 337 340
212 212 212 218 220 212 207 205 199 197 192 187 189 185 178 190 206 202 206 214 205 197 192 197 214 217 223 234 231 232 233 217 203 189 230 39 60 27 13 21 354 33 40 25 87 154 161 195 243 295 316 323 324 330 357 1 331 343 355 351 352 354 352 351 350 351 353 352 352 350 345 342 339 336 334 332 331 332 333 335 337 339 341 343 346
216 215 213 218 223 220 217 216 211 205 199 194 198 199 189 195 205 196 207 232 220 204 203 202 212 215 221 236 238 233 232 219 207 200 218 336 31 18 10 2 335 32 56 34 85 155 112 177 259 307 310 318 330 333 353 4 329 339 352 350 349 350 348 350 350 353 356 354 352 350 348 347 345 344 342 340 339 339 341 342 343 345 346 347 347
218 218 216 216 222 224 221 222 220 215 211 205 202 208 205 207 215 204 206 230 231 215 212 213 219 220 222 233 239 237 236 229 225 222 209 252 352 359 6 3 350 3 53 36 72 141 65 99 275 321 320 324 338 337 348 359 335 337 350 352 348 345 346 351 352 353 355 353 352 353 356 357 354 354 352 350 350 350 350 351 351 351 349 347 346
220 220 218 217 220 224 224 225 225 220 220 218 209 212 213 212 224 222 213 227 238 229 221 221 222 225 229 234 235 234 233 225 222 235 246 250 293 322 340 351 340 336 334 346 347 299 15 334 298 313 319 327 340 336 345 352 333 337 350 353 349 344 345 351 352 352 353 354 357 359 2 3 360 358 357 357 359 1 1 359 355 352 349 347 347
221 222 223 221 218 222 225 225 227 223 222 223 218 216 218 215 221 226 217 223 238 236 226 225 226 227 233 239 241 241 240 231 220 241 260 261 282 306 311 309 311 325 325 319 323 308 307 322 315 312 313 322 339 339 341 338 329 338 348 350 350 344 343 349 352 352 354 358 1 1 4 5 2 358 359 3 7 6 4 359 355 351 349 349 352
221 221 224 224 219 219 224 224 226 224 222 224 222 220 222 221 220 223 218 220 230 234 229 226 225 227 229 231 238 243 248 245 229 243 263 266 274 288 286 283 294 311 308 309 315 303 302 316 317 313 314 320 334 335 331 327 326 335 342 346 349 344 341 348 352 352 356 1 2 1 3 5 3 1 1 6 8 7 3 358 353 351 351 352 355
222 221 221 223 223 220 222 226 226 224 222 223 224 224 225 226 225 227 231 230 227 228 233 233 231 233 232 229 234 239 245 251 238 236 255 264 265 271 275 281 288 290 292 300 300 294 305 311 306 312 315 315 320 318 320 324 322 327 336 340 346 347 343 344 349 353 356 358 360 0 1 4 5 5 4 4 6 5 2 358 353 352 352 354 357
223 223 221 221 224 223 222 224 226 227 227 225 226 226 227 229 227 226 233 237 233 230 233 235 235 239 239 235 237 241 244 253 254 248 258 268 271 268 268 273 279 283 289 294 291 292 301 303 302 309 308 307 313 313 318 325 320 323 333 336 341 350 348 340 341 349 353 352 356 358 358 2 6 7 4 2 2 2 360 357 353 352 352 354 357
222 222 222 221 223 222 220 221 222 227 229 228 228 229 229 231 230 226 230 235 235 235 236 234 235 241 246 245 245 247 249 253 258 259 261 268 273 272 270 271 273 276 284 289 290 293 301 304 303 305 303 304 309 309 314 320 314 317 328 333 338 346 354 343 330 338 348 348 350 354 354 358 2 4 3 1 359 359 359 356 352 351 351 352 355
222 221 221 223 225 224 221 222 222 225 229 228 229 231 231 231 232 231 234 238 238 238 241 239 238 242 248 250 249 250 254 257 259 259 256 257 258 258 261 265 265 266 275 284 287 290 298 301 301 305 306 307 308 307 310 310 306 311 320 331 336 337 348 353 319 324 340 343 344 349 350 353 357 358 359 358 357 358 358 355 352 350 350 351 354
225 222 221 222 226 226 223 225 226 227 229 228 229 233 234 233 233 232 234 238 239 239 242 243 243 246 249 252 253 251 253 256 257 255 253 251 249 248 250 253 257 258 264 275 282 286 290 292 295 300 295 297 303 305 307 306 307 311 316 325 333 330 339 351 323 319 334 337 338 344 346 347 351 352 354 355 355 357 356 355 353 350 350 350 353
228 225 223 222 226 227 225 227 229 230 230 230 230 233 236 236 234 232 232 235 237 239 243 245 246 250 252 255 257 254 253 255 257 256 253 254 254 256 259 261 265 266 262 269 277 282 286 288 292 295 292 296 303 304 306 306 305 309 308 314 323 322 330 344 319 311 327 331 331 338 342 343 346 348 351 353 354 355 354 353 353 351 350 350 351
230 230 226 223 225 227 226 226 230 232 232 233 234 234 237 238 236 233 233 235 237 240 246 248 249 252 255 258 260 260 260 261 262 260 255 256 257 258 261 263 267 270 268 270 275 279 284 288 291 296 298 302 304 302 305 306 304 306 306 309 315 314 321 335 309 305 319 325 325 331 335 340 345 346 348 351 352 353 351 350 351 351 350 349 350
231 234 232 228 227 227 227 226 230 233 234 235 237 236 236 238 237 235 234 236 239 243 247 249 251 254 256 258 260 261 263 264 264 262 260 260 261 259 260 261 264 269 270 272 275 277 282 286 290 295 298 300 301 301 303 303 301 300 299 303 309 308 313 322 312 310 319 319 321 328 333 338 344 345 347 349 349 350 349 347 349 350 349 349 349
232 234 236 234 231 229 228 227 228 232 234 235 238 238 237 236 236 236 236 239 244 246 247 249 251 255 257 260 261 262 264 265 264 264 263 264 263 262 263 264 265 268 270 271 273 276 279 282 286 290 292 292 293 296 300 301 301 301 297 295 298 299 304 311 313 312 307 306 315 324 330 334 336 340 346 346 345 346 345 345 346 347 349 349 348
235 233 236 238 237 234 232 231 230 231 233 234 236 237 236 235 235 237 238 241 244 247 249 250 251 254 256 258 260 259 262 264 263 262 262 263 263 262 263 264 265 267 267 265 266 270 273 275 276 279 281 284 287 292 296 297 298 300 293 286 289 293 298 305 310 309 304 305 312 314 320 329 332 335 339 340 342 343 341 340 344 346 348 348 347
240 236 235 237 239 239 237 235 233 233 234 235 234 234 234 234 234 237 240 243 245 248 251 253 254 256 256 257 258 257 258 262 262 261 258 258 260 261 261 263 264 265 265 264 263 267 270 272 273 275 279 281 285 289 290 287 287 287 286 286 290 293 294 298 303 303 305 311 309 299 310 323 325 327 332 332 337 341 338 338 342 345 346 346 346
246 243 240 237 237 239 240 238 237 236 236 236 235 234 233 233 234 237 241 245 248 250 253 256 257 259 260 260 260 260 260 261 260 259 257 255 257 259 260 261 262 262 263 262 262 264 267 269 271 272 273 273 275 276 277 280 282 282 286 288 289 290 291 296 301 300 301 306 304 298 308 312 304 309 318 316 323 335 336 336 339 342 344 344 344
250 247 245 241 238 238 239 241 240 239 238 238 237 236 235 235 235 238 242 246 250 252 254 257 258 260 262 263 264 265 264 262 258 257 257 257 257 259 259 259 260 260 260 260 260 261 262 265 267 267 267 268 270 271 275 279 278 275 277 279 282 286 289 292 295 297 298 300 299 305 315 314 303 307 312 304 308 327 332 332 336 339 341 342 343
253 251 248 245 241 238 239 240 241 241 241 240 239 238 238 237 237 238 242 245 249 253 254 256 258 259 260 262 263 263 264 265 262 259 258 258 258 259 260 259 258 258 259 259 259 260 259 261 262 263 265 267 268 270 273 275 275 274 275 277 281 285 286 287 287 289 294 297 300 307 314 312 307 311 313 298 303 321 330 332 333 336 338 340 341
255 254 251 247 244 240 238 239 240 241 242 241 241 240 239 240 239 239 241 244 247 250 253 255 257 258 258 259 260 259 259 262 264 263 261 261 260 261 260 259 258 258 259 260 260 260 260 260 261 263 265 265 268 272 273 274 277 279 280 280 280 281 283 284 284 285 288 294 299 302 303 303 305 308 309 297 300 314 327 331 330 331 334 337 340
257 256 252 249 248 243 239 238 239 241 242 243 242 241 240 240 241 241 241 243 245 247 250 253 255 256 257 257 258 258 258 259 261 262 262 263 264 264 263 261 260 259 259 259 260 261 261 261 261 264 266 267 270 274 276 277 280 282 281 280 279 281 282 283 286 290 294 297 298 294 292 295 295 293 298 297 296 304 318 328 328 328 331 335 337
251 256 256 254 252 248 243 240 240 240 241 241 242 242 240 240 240 241 242 243 244 245 247 249 251 253 254 255 256 256 256 256 257 258 260 262 263 264 264 263 262 261 260 260 260 261 262 264 264 266 268 269 270 273 274 276 278 279 280 281 281 282 283 286 289 294 298 299 298 291 287 289 286 285 292 293 291 298 309 322 328 325 327 333 335
242 247 252 255 255 253 249 247 245 243 241 240 240 241 240 239 239 240 241 242 243 244 246 247 249 250 251 252 253 254 254 255 255 256 257 259 261 262 262 262 262 262 262 262 263 263 263 264 266 268 269 269 270 271 272 271 271 273 276 277 278 280 283 286 288 291 291 288 287 287 285 285 285 285 284 281 286 295 303 314 327 325 324 331 334
240 239 243 249 253 254 254 253 250 247 244 242 241 240 239 239 239 239 240 241 243 244 245 246 248 249 250 250 251 252 252 253 254 254 255 256 257 257 258 258 260 260 260 261 263 267 267 266 266 268 269 271 271 271 272 271 269 269 270 271 275 276 275 275 278 280 279 275 274 276 277 280 284 284 274 274 285 291 291 302 320 326 323 327 332
245 240 239 242 246 250 253 254 253 250 248 247 246 243 240 240 239 239 240 241 243 244 246 247 247 248 249 250 250 250 251 252 252 253 254 253 253 253 254 255 256 258 259 259 260 265 270 272 270 269 269 270 270 270 271 272 271 269 266 269 273 271 264 265 271 273 275 276 272 264 265 273 282 281 270 273 288 290 279 288 308 318 318 321 328
249 246 243 241 242 244 246 250 253 253 251 250 249 245 242 240 239 239 240 242 243 244 245 247 249 250 250 250 250 250 250 251 251 251 251 251 251 251 251 251 253 256 258 259 258 258 261 267 272 274 274 272 270 268 269 269 269 267 265 268 271 266 260 261 267 270 272 275 271 264 266 274 280 278 274 275 284 285 279 285 299 308 311 316 323